Flag for Germany Weather past 2 weeks in Celle, Lower Saxony, Germany

Now
66 °F

Scattered clouds.


Feels Like: 66 °F
Forecast: 42 / 58 °F
Wind: 16 mph from Northwest

Location: Celle Airport

Current Time: Apr 21, 2015 at 5:26:11 PM

Latest Report: Apr 21, 2015 at 4:20 PM


Visibility: N/A

Pressure: 30.33 "Hg

Humidity: 26%

Dew point: 30 °F

Location of CelleLocation

Historic Weather in Celle — Graph

°F

Celle temperature yesterday

Maximum temperature yesterday: 68 °F (at 3:20 PM)
Minimum temperature yesterday: 34 °F (at 6:20 AM)
Average temperature yesterday: 53 °F

Past Weeks' High & Low Weather Summary

 TemperatureHumidityPressure
High73 °F (Apr 15, 4:20 PM)100% (Apr 9, 2:20 AM)30.57 "Hg (Apr 9, 2:20 AM)
Low28 °F (Apr 7, 5:20 AM)26% (Apr 21, 4:20 PM)29.86 "Hg (Apr 15, 6:20 PM)
Average49 °F65%30.24 "Hg
* Reported Apr 6 4:20 PM — Apr 21 4:20 PM, Celle, Weather by CustomWeather, © 2015

Note: Actual official high and low records may vary slightly from our data, if they occured in-between our weather recording intervals... More about our weather records

Advertising

Celle weather history for previous 24 hours

 ConditionsComfort  
Time TempWeatherWind HumidityBarometerVisibility
4:20 PM
Tue, Apr 21
66 °FScattered clouds.16 mph26%30.33 "HgN/A
3:20 PM66 °FPartly sunny.15 mph30%30.33 "HgN/A
2:20 PM66 °FPartly sunny.12 mph35%30.36 "HgN/A
1:20 PM64 °FPartly sunny.13 mph37%30.36 "HgN/A
12:20 PM63 °FPartly sunny.12 mph39%30.36 "HgN/A
11:20 AM61 °FPartly sunny.8 mph42%30.39 "HgN/A
10:20 AM57 °FPartly sunny.8 mph51%30.39 "HgN/A
9:20 AM52 °FScattered clouds.6 mph67%30.39 "HgN/A
8:20 AM46 °FScattered clouds.6 mph82%30.39 "Hg5 mi
7:20 AM41 °FScattered clouds.6 mph93%30.36 "Hg4 mi
6:20 AM39 °FFog.6 mph93%30.36 "Hg4 mi
5:20 AM37 °FFog.3 mph93%30.36 "HgN/A
4:20 AM37 °FPassing clouds.2 mph87%30.36 "HgN/A
3:20 AM39 °FPassing clouds.1 mph81%30.39 "HgN/A
2:20 AM41 °FPassing clouds.3 mph76%30.36 "HgN/A
1:20 AM43 °FPassing clouds.3 mph71%30.36 "HgN/A
12:20 AM46 °FPassing clouds.1 mph62%30.36 "HgN/A
11:20 PM
Mon, Apr 20
52 °FPassing clouds.3 mph50%30.36 "HgN/A
10:20 PM54 °FPassing clouds.5 mph44%30.36 "HgN/A
9:20 PM59 °FScattered clouds.5 mph34%30.33 "HgN/A
8:20 PM63 °FScattered clouds.7 mph30%30.33 "HgN/A
7:20 PM66 °FPartly sunny.7 mph30%30.30 "HgN/A
6:20 PM66 °FPartly sunny.10 mph28%30.30 "HgN/A
5:20 PM68 °FPartly sunny.8 mph30%30.30 "HgN/A
Weather by CustomWeather, © 2015

See weather overviewHow to use our weather pages